Edinburg, TX

5:15 AM CDT on September 20, 2017 (GMT -0500)
Edinburg

Weather History for KEBG - May, 2013

Change the Weather History Date:

Wednesday, May 1, 2013

  Actual Average (KMFE) Record (KMFE)
Temperature  
Mean Temperature 84 °F -  
Max Temperature 93 °F 88 °F 100 °F (1980)
Min Temperature 74 °F 68 °F 57 °F (1994)
Cooling Degree Days 18    
Growing Degree Days 34 (Base 50)    
Moisture  
Dew Point 71 °F    
Average Humidity 72    
Maximum Humidity 91    
Minimum Humidity 43    
Precipitation  
Precipitation 0.00 in - - ()
Sea Level Pressure  
Sea Level Pressure 29.79 in    
Wind  
Wind Speed 7 mph (ESE)    
Max Wind Speed 16 mph    
Max Gust Speed 21 mph    
Visibility 4 miles    
Events      
Averages and records for this station are not official NWS values.
T = Trace of Precipitation, MM = Missing Value Source: NWS Daily Summary

Daily Weather History Graph

Daily Weather History Graph

Search for Another Location

Airport or City:

Trip Planner

Search our weather history database for the weather conditions in past years. The results will help you decide how hot, cold, wet, or windy it might be!

Date:

Astronomy

May. 01, 2013 Rise Set
Actual Time 6:54 AM CDT 8:04 PM CDT
Civil Twilight 6:30 AM CDT 8:29 PM CDT
Nautical Twilight 6:01 AM CDT 8:58 PM CDT
Astronomical Twilight 5:31 AM CDT 9:28 PM CDT
Moon 1:13 AM CDT (5/1) 12:34 PM CDT (5/1)
Length of Visible Light 13h 59m
Length of Day
13h 10m
Waning Gibbous, 59% of the Moon is Illuminated
May 1
Waning Gibbous
May 2
Last Quarter
May 9
New
May 17
First Quarter
May 24
Full

Hourly Weather History & Observations

Time (CDT) Temp. Heat Index Dew Point Humidity Pressure Visibility Wind Dir Wind Speed Gust Speed Precip Events Conditions
12:15 AM 75.7 °F - 71.8 °F 87% 29.79 in 4.0 mi SE 5.8 mph - N/A   Mostly Cloudy
12:35 AM 75.7 °F - 72.0 °F 88% 29.79 in 3.0 mi SSE 5.8 mph - N/A   Overcast
12:55 AM 75.7 °F - 72.0 °F 88% 29.79 in 4.0 mi SE 4.6 mph - N/A   Mostly Cloudy
1:35 AM 75.0 °F - 71.4 °F 89% 29.77 in 3.0 mi SE 3.5 mph - N/A   Overcast
1:55 AM 75.2 °F - 72.0 °F 90% 29.77 in 3.0 mi SE 4.6 mph - N/A   Overcast
2:15 AM 75.2 °F - 71.8 °F 89% 29.75 in 2.5 mi ESE 4.6 mph - N/A   Overcast
2:35 AM 74.7 °F - 71.6 °F 90% 29.75 in 2.5 mi East 5.8 mph - N/A   Mist
2:55 AM 74.8 °F - 71.6 °F 90% 29.75 in 2.5 mi East 6.9 mph - N/A   Mist
3:15 AM 75.0 °F - 71.8 °F 90% 29.74 in 2.0 mi East 6.9 mph - N/A   Overcast
3:35 AM 74.3 °F - 71.2 °F 90% 29.74 in 2.5 mi SE 4.6 mph - N/A   Overcast
3:55 AM 74.5 °F - 71.6 °F 91% 29.74 in 2.0 mi South 4.6 mph - N/A   Overcast
4:15 AM 74.7 °F - 71.8 °F 91% 29.75 in 2.0 mi SE 3.5 mph - N/A   Overcast
4:35 AM 74.7 °F - 71.8 °F 91% 29.75 in 2.0 mi Calm Calm - N/A   Overcast
4:55 AM 74.8 °F - 72.0 °F 91% 29.75 in 2.0 mi SE 3.5 mph - N/A   Overcast
5:15 AM 75.2 °F - 72.1 °F 90% 29.76 in 2.5 mi ESE 3.5 mph - N/A   Overcast
5:35 AM 75.4 °F - 72.5 °F 91% 29.77 in 2.5 mi Calm Calm - N/A   Overcast
5:55 AM 75.4 °F - 72.1 °F 90% 29.77 in 3.0 mi SE 3.5 mph - N/A   Overcast
6:15 AM 75.4 °F - 72.1 °F 90% 29.77 in 2.5 mi SE 5.8 mph - N/A   Overcast
6:35 AM 75.2 °F - 72.0 °F 90% 29.77 in 3.0 mi SE 6.9 mph - N/A   Overcast
6:55 AM 74.7 °F - 71.6 °F 90% 29.77 in 2.5 mi SSE 4.6 mph - N/A   Mist
7:15 AM 74.5 °F - 71.2 °F 90% 29.78 in 1.8 mi SSE 4.6 mph - N/A   Mist
7:35 AM 74.5 °F - 71.2 °F 90% 29.78 in 1.5 mi SSE 3.5 mph - N/A   Mist
7:55 AM 74.8 °F - 71.6 °F 90% 29.78 in 1.8 mi ESE 6.9 mph - N/A   Mist
8:15 AM 75.7 °F - 72.5 °F 90% 29.79 in 2.0 mi ESE 6.9 mph - N/A   Mist
8:35 AM 77.0 °F - 72.5 °F 86% 29.79 in 2.5 mi SE 9.2 mph - N/A   Mist
8:55 AM 78.1 °F - 72.5 °F 83% 29.80 in 4.0 mi ESE 8.1 mph - N/A   Haze
9:15 AM 79.7 °F - 72.1 °F 78% 29.81 in 3.0 mi ESE 8.1 mph - N/A   Haze
9:35 AM 80.4 °F 84.4 °F 72.0 °F 75% 29.80 in 4.0 mi ESE 9.2 mph - N/A   Haze
9:55 AM 80.8 °F 84.9 °F 71.8 °F 74% 29.80 in 4.0 mi ESE 9.2 mph - N/A   Haze
10:15 AM 82.2 °F 87.1 °F 71.8 °F 71% 29.80 in 4.0 mi East 9.2 mph - N/A   Haze
10:35 AM 82.9 °F 87.7 °F 71.4 °F 68% 29.80 in 4.0 mi ESE 10.4 mph - N/A   Haze
10:55 AM 84.6 °F 90.0 °F 71.4 °F 65% 29.81 in 5.0 mi SE 9.2 mph - N/A   Haze
11:15 AM 84.9 °F 90.1 °F 71.1 °F 63% 29.81 in 4.0 mi ESE 12.7 mph 16.1 mph N/A   Haze
11:35 AM 86.7 °F 91.7 °F 70.2 °F 58% 29.81 in 5.0 mi SE 9.2 mph - N/A   Haze
11:55 AM 86.7 °F 91.7 °F 70.2 °F 58% 29.81 in 5.0 mi SE 10.4 mph - N/A   Haze
12:15 PM 86.9 °F 91.3 °F 69.6 °F 56% 29.80 in 5.0 mi SE 5.8 mph 9.2 mph N/A   Haze
12:35 PM 88.9 °F 93.4 °F 69.4 °F 52% 29.80 in 5.0 mi ESE 10.4 mph - N/A   Haze
12:55 PM 88.9 °F 93.8 °F 69.8 °F 53% 29.80 in 5.0 mi ESE 6.9 mph - N/A   Haze
1:15 PM 89.2 °F 94.1 °F 69.3 °F 52% 29.79 in 5.0 mi SE 9.2 mph - N/A   Haze
1:35 PM 89.8 °F 94.6 °F 69.3 °F 51% 29.79 in 5.0 mi ESE 8.1 mph - N/A   Haze
1:55 PM 90.3 °F 94.7 °F 68.9 °F 49% 29.79 in 5.0 mi ESE 10.4 mph - N/A   Haze
2:15 PM 91.4 °F 96.3 °F 68.9 °F 48% 29.78 in 5.0 mi SE 12.7 mph 18.4 mph N/A   Haze
2:35 PM 90.9 °F 96.7 °F 70.3 °F 51% 29.78 in 5.0 mi East 13.8 mph 20.7 mph N/A   Haze
2:55 PM 90.5 °F 96.5 °F 70.5 °F 52% 29.78 in 5.0 mi ESE 10.4 mph 20.7 mph N/A   Haze
3:15 PM 92.1 °F 97.7 °F 69.8 °F 48% 29.77 in 5.0 mi ESE 13.8 mph 17.3 mph N/A   Haze
3:35 PM 92.3 °F 96.5 °F 68.2 °F 45% 29.77 in 5.0 mi SE 11.5 mph 17.3 mph N/A   Haze
3:55 PM 93.0 °F 97.9 °F 68.7 °F 45% 29.76 in 5.0 mi SE 11.5 mph 18.4 mph N/A   Haze
4:15 PM 93.0 °F 97.9 °F 69.1 °F 45% 29.76 in 7.0 mi ESE 13.8 mph - N/A   Scattered Clouds
4:35 PM 92.1 °F 96.7 °F 68.7 °F 46% 29.75 in 7.0 mi East 11.5 mph 18.4 mph N/A   Clear
4:55 PM 93.2 °F 97.2 °F 67.8 °F 43% 29.75 in 7.0 mi SE 13.8 mph 18.4 mph N/A   Scattered Clouds
5:15 PM 91.8 °F 97.0 °F 69.3 °F 48% 29.75 in 5.0 mi ESE 16.1 mph - N/A   Haze
5:35 PM 92.1 °F 97.2 °F 69.1 °F 47% 29.75 in 5.0 mi ESE 13.8 mph - N/A   Haze
5:55 PM 91.2 °F 96.5 °F 69.4 °F 49% 29.75 in 5.0 mi ESE 11.5 mph - N/A   Haze
6:15 PM 90.5 °F 95.5 °F 69.8 °F 50% 29.75 in 5.0 mi SE 12.7 mph 20.7 mph N/A   Haze
6:55 PM 88.0 °F 92.9 °F 69.8 °F 55% 29.77 in 7.0 mi ESE 12.7 mph - N/A   Clear
7:15 PM 87.1 °F 91.6 °F 69.8 °F 56% 29.77 in 10.0 mi East 13.8 mph - N/A   Clear
7:35 PM 85.8 °F 90.4 °F 70.2 °F 59% 29.79 in 5.0 mi ESE 13.8 mph - N/A   Haze
7:55 PM 83.8 °F 88.6 °F 71.1 °F 65% 29.80 in 5.0 mi East 13.8 mph - N/A   Haze
8:15 PM 82.4 °F 86.7 °F 71.1 °F 68% 29.81 in 4.0 mi East 13.8 mph 18.4 mph N/A   Haze
8:35 PM 81.3 °F 85.2 °F 70.9 °F 70% 29.82 in 5.0 mi East 15.0 mph - N/A   Haze
8:55 PM 80.2 °F 83.7 °F 70.9 °F 73% 29.82 in 5.0 mi East 12.7 mph - N/A   Haze
9:15 PM 79.5 °F - 70.7 °F 74% 29.83 in 5.0 mi East 10.4 mph - N/A   Haze
9:35 PM 78.8 °F - 70.7 °F 76% 29.83 in 7.0 mi ESE 9.2 mph - N/A   Clear
9:55 PM 78.1 °F - 70.9 °F 78% 29.83 in 7.0 mi ESE 9.2 mph - N/A   Clear
10:15 PM 77.4 °F - 70.9 °F 80% 29.84 in 5.0 mi ESE 10.4 mph - N/A   Haze
10:35 PM 76.8 °F - 70.7 °F 81% 29.85 in 5.0 mi ESE 10.4 mph - N/A   Haze
10:55 PM 76.3 °F - 70.9 °F 83% 29.84 in 5.0 mi ESE 11.5 mph - N/A   Haze
11:15 PM 76.1 °F - 70.7 °F 83% 29.85 in 5.0 mi ESE 10.4 mph - N/A   Haze
11:35 PM 75.6 °F - 70.7 °F 85% 29.85 in 5.0 mi ESE 9.2 mph - N/A   Haze
11:55 PM 76.1 °F - 70.7 °F 83% 29.86 in 5.0 mi SE 9.2 mph - N/A   Haze